Location: Moscow
(55.7500°N, 37.5830°E)
Time: 18:15:48
(UTC+03:00)

Transit 2A - Pass Details

Date: 02 December 2021
Orbit: 591 x 967 km, 66.7° (Epoch: 21 January)

Event Time Altitude Azimuth Distance (km) Brightness Sun altitude
Rises 04:34:27 0° 275° (W) 3,494 - -32.6°
Reaches altitude 10° 04:37:11 10° 285° (WNW) 2,604 - -32.2°
Maximum altitude 04:42:39 33° 348° (NNW) 1,558 - -31.5°
Exits shadow 04:43:21 32° 1° (N) 1,587 7.6 -31.4°
Drops below altitude 10° 04:48:21 10° 51° (NE) 2,714 9.5 -30.7°
Sets 04:51:15 0° 61° (ENE) 3,663 10.5 -30.3°
